Year,Month,Day,Hour,Minute,Value (Times are PST for windspeed in km/hr)
2019,09,28,00,00,0.30
2019,09,28,00,01,0.20
2019,09,28,00,02,3.60
2019,09,28,00,03,4.30
2019,09,28,00,04,6.10
2019,09,28,00,05,1.50
2019,09,28,00,06,1.20
2019,09,28,00,07,1.70
2019,09,28,00,08,1.50
2019,09,28,00,09,2.40
2019,09,28,00,10,1.80
2019,09,28,00,11,1.30
2019,09,28,00,12,0.00
2019,09,28,00,13,0.00
2019,09,28,00,14,0.00
2019,09,28,00,15,2.30
2019,09,28,00,16,3.20
2019,09,28,00,17,0.10
2019,09,28,00,18,3.40
2019,09,28,00,19,4.20
2019,09,28,00,20,2.40
2019,09,28,00,21,0.80
2019,09,28,00,22,0.40
2019,09,28,00,23,1.10
2019,09,28,00,24,1.80
2019,09,28,00,25,1.00
2019,09,28,00,26,0.00
2019,09,28,00,27,0.10
2019,09,28,00,28,0.00
2019,09,28,00,29,0.50
2019,09,28,00,30,0.00
2019,09,28,00,31,0.00
2019,09,28,00,32,1.20
2019,09,28,00,33,0.50
2019,09,28,00,34,0.50
2019,09,28,00,35,0.30
2019,09,28,00,36,0.10
2019,09,28,00,37,0.00
2019,09,28,00,38,1.00
2019,09,28,00,39,0.00
2019,09,28,00,40,0.10
2019,09,28,00,41,0.10
2019,09,28,00,42,0.00
2019,09,28,00,43,1.20
2019,09,28,00,44,3.90
2019,09,28,00,45,0.60
2019,09,28,00,46,2.40
2019,09,28,00,47,1.50
2019,09,28,00,48,0.20
2019,09,28,00,49,2.40
2019,09,28,00,50,2.00
2019,09,28,00,51,1.40
2019,09,28,00,52,2.00
2019,09,28,00,53,2.00
2019,09,28,00,54,0.30
2019,09,28,00,55,2.60
2019,09,28,00,56,2.70
2019,09,28,00,57,1.70
2019,09,28,00,58,3.10
2019,09,28,00,59,4.60
2019,09,28,01,00,2.60
2019,09,28,01,01,0.50
2019,09,28,01,02,1.10
2019,09,28,01,03,0.80
2019,09,28,01,04,2.10
2019,09,28,01,05,0.80
2019,09,28,01,06,0.00
2019,09,28,01,07,1.70
2019,09,28,01,08,0.10
2019,09,28,01,09,0.00
2019,09,28,01,10,0.20
2019,09,28,01,11,5.10
2019,09,28,01,12,4.20
2019,09,28,01,13,1.50
2019,09,28,01,14,0.10
2019,09,28,01,15,1.00
2019,09,28,01,16,2.90
2019,09,28,01,17,2.70
2019,09,28,01,18,1.70
2019,09,28,01,19,1.80
2019,09,28,01,20,0.10
2019,09,28,01,21,0.10
2019,09,28,01,22,0.10
2019,09,28,01,23,0.10
2019,09,28,01,24,0.00
2019,09,28,01,25,1.10
2019,09,28,01,26,0.90
2019,09,28,01,27,2.60
2019,09,28,01,28,0.30
2019,09,28,01,29,0.00
2019,09,28,01,30,1.00
2019,09,28,01,31,0.10
2019,09,28,01,32,0.60
2019,09,28,01,33,0.00
2019,09,28,01,34,0.00
2019,09,28,01,35,0.20
2019,09,28,01,36,1.20
2019,09,28,01,37,1.80
2019,09,28,01,38,0.20
2019,09,28,01,39,0.10
2019,09,28,01,40,1.90
2019,09,28,01,41,1.40
2019,09,28,01,42,0.40
2019,09,28,01,43,0.30
2019,09,28,01,44,0.00
2019,09,28,01,45,0.20
2019,09,28,01,46,2.00
2019,09,28,01,47,0.10
2019,09,28,01,48,2.10
2019,09,28,01,49,1.00
2019,09,28,01,50,1.20
2019,09,28,01,51,0.10
2019,09,28,01,52,0.30
2019,09,28,01,53,2.90
2019,09,28,01,54,2.60
2019,09,28,01,55,3.40
2019,09,28,01,56,2.70
2019,09,28,01,57,2.80
2019,09,28,01,58,2.90
2019,09,28,01,59,3.10
2019,09,28,02,00,3.10
2019,09,28,02,01,2.70
2019,09,28,02,02,2.20
2019,09,28,02,03,3.60
2019,09,28,02,04,2.50
2019,09,28,02,05,2.10
2019,09,28,02,06,3.00
2019,09,28,02,07,2.00
2019,09,28,02,08,4.30
2019,09,28,02,09,5.00
2019,09,28,02,10,6.70
2019,09,28,02,11,3.70
2019,09,28,02,12,3.60
2019,09,28,02,13,6.10
2019,09,28,02,14,6.10
2019,09,28,02,15,3.70
2019,09,28,02,16,3.30
2019,09,28,02,17,1.50
2019,09,28,02,18,1.80
2019,09,28,02,19,6.10
2019,09,28,02,20,6.50
2019,09,28,02,21,5.10
2019,09,28,02,22,4.10
2019,09,28,02,23,3.30
2019,09,28,02,24,5.10
2019,09,28,02,25,5.10
2019,09,28,02,26,1.00
2019,09,28,02,27,1.80
2019,09,28,02,28,7.00
2019,09,28,02,29,2.50
2019,09,28,02,30,5.10
2019,09,28,02,31,0.60
2019,09,28,02,32,0.20
2019,09,28,02,33,0.00
2019,09,28,02,34,0.00
2019,09,28,02,35,0.50
2019,09,28,02,36,0.40
2019,09,28,02,37,3.50
2019,09,28,02,38,4.80
2019,09,28,02,39,5.60
2019,09,28,02,40,3.60
2019,09,28,02,41,3.50
2019,09,28,02,42,4.30
2019,09,28,02,43,1.80
2019,09,28,02,44,2.80
2019,09,28,02,45,1.60
2019,09,28,02,46,0.10
2019,09,28,02,47,0.40
2019,09,28,02,48,1.00
2019,09,28,02,49,1.60
2019,09,28,02,50,6.40
2019,09,28,02,51,6.50
2019,09,28,02,52,3.30
2019,09,28,02,53,5.80
2019,09,28,02,54,4.60
2019,09,28,02,55,4.30
2019,09,28,02,56,5.50
2019,09,28,02,57,4.20
2019,09,28,02,58,4.00
2019,09,28,02,59,4.10
2019,09,28,03,00,3.80
2019,09,28,03,01,3.60
2019,09,28,03,02,3.40
2019,09,28,03,03,2.50
2019,09,28,03,04,2.50
2019,09,28,03,05,4.20
2019,09,28,03,06,4.90
2019,09,28,03,07,4.20
2019,09,28,03,08,3.10
2019,09,28,03,09,5.00
2019,09,28,03,10,2.80
2019,09,28,03,11,1.40
2019,09,28,03,12,2.10
2019,09,28,03,13,4.20
2019,09,28,03,14,6.40
2019,09,28,03,15,5.90
2019,09,28,03,16,6.40
2019,09,28,03,17,3.80
2019,09,28,03,18,3.60
2019,09,28,03,19,4.80
2019,09,28,03,20,2.50
2019,09,28,03,21,5.90
2019,09,28,03,22,3.30
2019,09,28,03,23,3.40
2019,09,28,03,24,1.50
2019,09,28,03,25,3.30
2019,09,28,03,26,3.00
2019,09,28,03,27,3.30
2019,09,28,03,28,4.90
2019,09,28,03,29,6.30
2019,09,28,03,30,6.80
2019,09,28,03,31,5.60
2019,09,28,03,32,6.30
2019,09,28,03,33,3.30
2019,09,28,03,34,5.20
2019,09,28,03,35,5.60
2019,09,28,03,36,6.50
2019,09,28,03,37,5.20
2019,09,28,03,38,7.10
2019,09,28,03,39,7.30
2019,09,28,03,40,5.90
2019,09,28,03,41,6.70
2019,09,28,03,42,3.90
2019,09,28,03,43,3.30
2019,09,28,03,44,3.40
2019,09,28,03,45,0.30
2019,09,28,03,46,0.40
2019,09,28,03,47,1.60
2019,09,28,03,48,3.80
2019,09,28,03,49,2.80
2019,09,28,03,50,0.40
2019,09,28,03,51,2.60
2019,09,28,03,52,3.00
2019,09,28,03,53,4.60
2019,09,28,03,54,3.00
2019,09,28,03,55,1.20
2019,09,28,03,56,3.10
2019,09,28,03,57,1.60
2019,09,28,03,58,2.30
2019,09,28,03,59,3.10
2019,09,28,04,00,3.10
2019,09,28,04,01,3.70
2019,09,28,04,02,3.80
2019,09,28,04,03,3.40
2019,09,28,04,04,2.70
2019,09,28,04,05,0.40
2019,09,28,04,06,0.50
2019,09,28,04,07,1.80
2019,09,28,04,08,0.50
2019,09,28,04,09,4.00
2019,09,28,04,10,4.20
2019,09,28,04,11,1.80
2019,09,28,04,12,2.10
2019,09,28,04,13,0.80
2019,09,28,04,14,1.10
2019,09,28,04,15,0.40
2019,09,28,04,16,1.00
2019,09,28,04,17,2.90
2019,09,28,04,18,1.20
2019,09,28,04,19,3.90
2019,09,28,04,20,3.10
2019,09,28,04,21,2.80
2019,09,28,04,22,0.50
2019,09,28,04,23,1.20
2019,09,28,04,24,3.40
2019,09,28,04,25,6.30
2019,09,28,04,26,8.30
2019,09,28,04,27,5.40
2019,09,28,04,28,2.90
2019,09,28,04,29,3.30
2019,09,28,04,30,2.50
2019,09,28,04,31,3.00
2019,09,28,04,32,5.50
2019,09,28,04,33,4.30
2019,09,28,04,34,2.40
2019,09,28,04,35,2.00
2019,09,28,04,36,3.40
2019,09,28,04,37,4.50
2019,09,28,04,38,4.10
2019,09,28,04,39,4.90
2019,09,28,04,40,2.10
2019,09,28,04,41,0.10
2019,09,28,04,42,3.70
2019,09,28,04,43,2.70
2019,09,28,04,44,2.40
2019,09,28,04,45,0.10
2019,09,28,04,46,0.50
2019,09,28,04,47,0.20
2019,09,28,04,48,0.10
2019,09,28,04,49,0.50
2019,09,28,04,50,1.90
2019,09,28,04,51,1.40
2019,09,28,04,52,2.80
2019,09,28,04,53,0.70
2019,09,28,04,54,0.10
2019,09,28,04,55,0.00
2019,09,28,04,56,0.00
2019,09,28,04,57,0.00
2019,09,28,04,58,0.00
2019,09,28,04,59,0.00
2019,09,28,05,00,0.00
2019,09,28,05,01,0.00
2019,09,28,05,02,0.00
2019,09,28,05,03,0.00
2019,09,28,05,04,0.00
2019,09,28,05,05,3.10
2019,09,28,05,06,2.50
2019,09,28,05,07,3.10
2019,09,28,05,08,2.20
2019,09,28,05,09,0.50
2019,09,28,05,10,0.70
2019,09,28,05,11,1.60
2019,09,28,05,12,0.00
2019,09,28,05,13,0.00
2019,09,28,05,14,0.00
2019,09,28,05,15,0.00
2019,09,28,05,16,1.80
2019,09,28,05,17,0.10
2019,09,28,05,18,0.50
2019,09,28,05,19,1.70
2019,09,28,05,20,1.20
2019,09,28,05,21,6.10
2019,09,28,05,22,3.80
2019,09,28,05,23,6.70
2019,09,28,05,24,5.60
2019,09,28,05,25,5.40
2019,09,28,05,26,5.20
2019,09,28,05,27,4.80
2019,09,28,05,28,4.80
2019,09,28,05,29,6.60
2019,09,28,05,30,7.20
2019,09,28,05,31,5.40
2019,09,28,05,32,9.00
2019,09,28,05,33,4.90
2019,09,28,05,34,6.00
2019,09,28,05,35,6.00
2019,09,28,05,36,5.90
2019,09,28,05,37,6.30
2019,09,28,05,38,5.10
2019,09,28,05,39,2.10
2019,09,28,05,40,3.80
2019,09,28,05,41,7.10
2019,09,28,05,42,3.10
2019,09,28,05,43,5.80
2019,09,28,05,44,7.60
2019,09,28,05,45,8.00
2019,09,28,05,46,7.20
2019,09,28,05,47,2.60
2019,09,28,05,48,5.10
2019,09,28,05,49,7.70
2019,09,28,05,50,7.60
2019,09,28,05,51,8.70
2019,09,28,05,52,7.80
2019,09,28,05,53,6.20
2019,09,28,05,54,5.80
2019,09,28,05,55,4.20
2019,09,28,05,56,4.10
2019,09,28,05,57,9.10
2019,09,28,05,58,4.80
2019,09,28,05,59,5.40
2019,09,28,06,00,4.80
2019,09,28,06,01,3.60
2019,09,28,06,02,4.80
2019,09,28,06,03,2.80
2019,09,28,06,04,4.30
2019,09,28,06,05,7.80
2019,09,28,06,06,7.70
2019,09,28,06,07,7.40
2019,09,28,06,08,6.70
2019,09,28,06,09,6.70
2019,09,28,06,10,5.20
2019,09,28,06,11,4.60
2019,09,28,06,12,7.80
2019,09,28,06,13,9.70
2019,09,28,06,14,4.60
2019,09,28,06,15,2.90
2019,09,28,06,16,4.70
2019,09,28,06,17,2.90
2019,09,28,06,18,4.20
2019,09,28,06,19,3.50
2019,09,28,06,20,3.40
2019,09,28,06,21,3.60
2019,09,28,06,22,3.90
2019,09,28,06,23,5.00
2019,09,28,06,24,6.00
2019,09,28,06,25,4.10
2019,09,28,06,26,5.00
2019,09,28,06,27,3.20
2019,09,28,06,28,0.10
2019,09,28,06,29,1.40
2019,09,28,06,30,2.70
2019,09,28,06,31,0.20
2019,09,28,06,32,0.60
2019,09,28,06,33,5.50
2019,09,28,06,34,5.50
2019,09,28,06,35,0.40
2019,09,28,06,36,2.00
2019,09,28,06,37,0.70
2019,09,28,06,38,0.20
2019,09,28,06,39,0.60
2019,09,28,06,40,0.20
2019,09,28,06,41,0.40
2019,09,28,06,42,3.70
2019,09,28,06,43,5.00
2019,09,28,06,44,3.40
2019,09,28,06,45,2.50
2019,09,28,06,46,0.50
2019,09,28,06,47,0.70
2019,09,28,06,48,4.80
2019,09,28,06,49,0.90
2019,09,28,06,50,0.10
2019,09,28,06,51,1.80
2019,09,28,06,52,1.80
2019,09,28,06,53,3.00
2019,09,28,06,54,5.30
2019,09,28,06,55,3.50
2019,09,28,06,56,3.10
2019,09,28,06,57,3.80
2019,09,28,06,58,4.30
2019,09,28,06,59,4.70
2019,09,28,07,00,3.60
2019,09,28,07,01,5.40
2019,09,28,07,02,2.30
2019,09,28,07,03,2.40
2019,09,28,07,04,2.90
2019,09,28,07,05,4.00
2019,09,28,07,06,4.60
2019,09,28,07,07,1.40
2019,09,28,07,08,2.40
2019,09,28,07,09,0.30
2019,09,28,07,10,0.00
2019,09,28,07,11,0.00
2019,09,28,07,12,1.20
2019,09,28,07,13,3.70
2019,09,28,07,14,1.30
2019,09,28,07,15,0.20
2019,09,28,07,16,0.00
2019,09,28,07,17,0.10
2019,09,28,07,18,0.00
2019,09,28,07,19,0.00
2019,09,28,07,20,0.00
2019,09,28,07,21,0.10
2019,09,28,07,22,0.40
2019,09,28,07,23,0.00
2019,09,28,07,24,0.10
2019,09,28,07,25,0.10
2019,09,28,07,26,0.00
2019,09,28,07,27,0.00
2019,09,28,07,28,0.50
2019,09,28,07,29,0.00
2019,09,28,07,30,0.00
2019,09,28,07,31,0.00
2019,09,28,07,32,0.30
2019,09,28,07,33,0.20
2019,09,28,07,34,0.10
2019,09,28,07,35,0.00
2019,09,28,07,36,0.40
2019,09,28,07,37,3.30
2019,09,28,07,38,1.00
2019,09,28,07,39,0.30
2019,09,28,07,40,2.10
2019,09,28,07,41,0.20
2019,09,28,07,42,1.00
2019,09,28,07,43,1.70
2019,09,28,07,44,0.10
2019,09,28,07,45,1.30
2019,09,28,07,46,2.30
2019,09,28,07,47,0.80
2019,09,28,07,48,1.60
2019,09,28,07,49,4.30
2019,09,28,07,50,0.40
2019,09,28,07,51,3.40
2019,09,28,07,52,0.00
2019,09,28,07,53,0.10
2019,09,28,07,54,3.70
2019,09,28,07,55,1.50
2019,09,28,07,56,1.10
2019,09,28,07,57,0.30
2019,09,28,07,58,1.90
2019,09,28,07,59,0.50
2019,09,28,08,00,0.00
2019,09,28,08,01,1.50
2019,09,28,08,02,1.30
2019,09,28,08,03,0.20
2019,09,28,08,04,1.50
2019,09,28,08,05,0.30
2019,09,28,08,06,1.30
2019,09,28,08,07,0.50
2019,09,28,08,08,0.40
2019,09,28,08,09,0.10
2019,09,28,08,10,0.60
2019,09,28,08,11,0.70
2019,09,28,08,12,2.50
2019,09,28,08,13,3.30
2019,09,28,08,14,3.50
2019,09,28,08,15,4.20
2019,09,28,08,16,4.50
2019,09,28,08,17,1.60
2019,09,28,08,18,2.70
2019,09,28,08,19,0.60
2019,09,28,08,20,3.10
2019,09,28,08,21,1.40
2019,09,28,08,22,0.80
2019,09,28,08,23,1.00
2019,09,28,08,24,1.30
2019,09,28,08,25,1.50
2019,09,28,08,26,2.80
2019,09,28,08,27,3.10
2019,09,28,08,28,6.50
2019,09,28,08,29,1.30
2019,09,28,08,30,3.50
2019,09,28,08,31,4.00
2019,09,28,08,32,1.10
2019,09,28,08,33,4.10
2019,09,28,08,34,3.90
2019,09,28,08,35,3.90
2019,09,28,08,36,2.30
2019,09,28,08,37,3.00
2019,09,28,08,38,2.80
2019,09,28,08,39,2.50
2019,09,28,08,40,1.20
2019,09,28,08,41,1.00
2019,09,28,08,42,1.50
2019,09,28,08,43,1.00
2019,09,28,08,44,1.80
2019,09,28,08,45,0.70
2019,09,28,08,46,0.00
2019,09,28,08,47,0.00
2019,09,28,08,48,1.80
2019,09,28,08,49,0.70
2019,09,28,08,50,0.10
2019,09,28,08,51,0.00
2019,09,28,08,52,0.00
2019,09,28,08,53,0.00
2019,09,28,08,54,2.10
2019,09,28,08,55,0.10
2019,09,28,08,56,2.20
2019,09,28,08,57,1.10
2019,09,28,08,58,2.80
2019,09,28,08,59,0.70
2019,09,28,09,00,0.10
2019,09,28,09,01,0.30
2019,09,28,09,02,1.20
2019,09,28,09,03,0.10
2019,09,28,09,04,3.80
2019,09,28,09,05,3.10
2019,09,28,09,06,2.40
2019,09,28,09,07,2.90
2019,09,28,09,08,2.80
2019,09,28,09,09,0.80
2019,09,28,09,10,0.60
2019,09,28,09,11,2.80
2019,09,28,09,12,0.10
2019,09,28,09,13,1.00
2019,09,28,09,14,6.60
2019,09,28,09,15,6.80
2019,09,28,09,16,6.00
2019,09,28,09,17,6.10
2019,09,28,09,18,4.10
2019,09,28,09,19,2.40
2019,09,28,09,20,4.70
2019,09,28,09,21,4.50
2019,09,28,09,22,4.70
2019,09,28,09,23,3.10
2019,09,28,09,24,1.30
2019,09,28,09,25,0.10
2019,09,28,09,26,0.00
2019,09,28,09,27,0.00
2019,09,28,09,28,0.00
2019,09,28,09,29,2.80
2019,09,28,09,30,0.40
2019,09,28,09,31,0.60
2019,09,28,09,32,0.00
2019,09,28,09,33,0.10
2019,09,28,09,34,2.10
2019,09,28,09,35,0.50
2019,09,28,09,36,0.60
2019,09,28,09,37,2.30
2019,09,28,09,38,1.50
2019,09,28,09,39,1.20
2019,09,28,09,40,1.00
2019,09,28,09,41,1.50
2019,09,28,09,42,0.70
2019,09,28,09,43,3.30
2019,09,28,09,44,0.10
2019,09,28,09,45,0.00
2019,09,28,09,46,0.00
2019,09,28,09,47,0.00
2019,09,28,09,48,0.00
2019,09,28,09,49,0.00
2019,09,28,09,50,0.00
2019,09,28,09,51,1.40
2019,09,28,09,52,7.20
2019,09,28,09,53,4.80
2019,09,28,09,54,0.80
2019,09,28,09,55,6.70
2019,09,28,09,56,6.70
2019,09,28,09,57,5.50
2019,09,28,09,58,5.40
2019,09,28,09,59,6.70
2019,09,28,10,00,6.40
2019,09,28,10,01,5.40
2019,09,28,10,02,7.70
2019,09,28,10,03,8.70
2019,09,28,10,04,9.10
2019,09,28,10,05,8.50
2019,09,28,10,06,11.40
2019,09,28,10,07,9.40
2019,09,28,10,08,8.80
2019,09,28,10,09,9.40
2019,09,28,10,10,7.40
2019,09,28,10,11,7.50
2019,09,28,10,12,4.20
2019,09,28,10,13,6.80
2019,09,28,10,14,6.20
2019,09,28,10,15,4.60
2019,09,28,10,16,2.00
2019,09,28,10,17,4.80
2019,09,28,10,18,7.90
2019,09,28,10,19,5.70
2019,09,28,10,20,6.20
2019,09,28,10,21,4.30
2019,09,28,10,22,3.00
2019,09,28,10,23,5.90
2019,09,28,10,24,1.80
2019,09,28,10,25,5.10
2019,09,28,10,26,4.90
2019,09,28,10,27,3.40
2019,09,28,10,28,5.00
2019,09,28,10,29,7.50
2019,09,28,10,30,5.50
2019,09,28,10,31,11.10
2019,09,28,10,32,10.00
2019,09,28,10,33,10.70
2019,09,28,10,34,6.40
2019,09,28,10,35,3.50
2019,09,28,10,36,4.00
2019,09,28,10,37,8.70
2019,09,28,10,38,10.80
2019,09,28,10,39,6.00
2019,09,28,10,40,3.70
2019,09,28,10,41,10.80
2019,09,28,10,42,4.70
2019,09,28,10,43,3.80
2019,09,28,10,44,2.30
2019,09,28,10,45,1.40
2019,09,28,10,46,9.50
2019,09,28,10,47,5.40
2019,09,28,10,48,2.30
2019,09,28,10,49,0.70
2019,09,28,10,50,2.10
2019,09,28,10,51,3.90
2019,09,28,10,52,7.00
2019,09,28,10,53,7.70
2019,09,28,10,54,5.30
2019,09,28,10,55,8.20
2019,09,28,10,56,3.00
2019,09,28,10,57,2.70
2019,09,28,10,58,1.00
2019,09,28,10,59,8.90
2019,09,28,11,00,8.10
2019,09,28,11,01,3.00
2019,09,28,11,02,6.70
2019,09,28,11,03,2.40
2019,09,28,11,04,4.90
2019,09,28,11,05,4.10
2019,09,28,11,06,5.80
2019,09,28,11,07,5.30
2019,09,28,11,08,0.90
2019,09,28,11,09,4.60
2019,09,28,11,10,9.10
2019,09,28,11,11,10.40
2019,09,28,11,12,6.40
2019,09,28,11,13,8.40
2019,09,28,11,14,7.70
2019,09,28,11,15,12.70
2019,09,28,11,16,8.10
2019,09,28,11,17,11.80
2019,09,28,11,18,13.30
2019,09,28,11,19,12.40
2019,09,28,11,20,9.20
2019,09,28,11,21,11.90
2019,09,28,11,22,7.80
2019,09,28,11,23,11.50
2019,09,28,11,24,11.70
2019,09,28,11,25,10.40
2019,09,28,11,26,8.20
2019,09,28,11,27,5.20
2019,09,28,11,28,7.80
2019,09,28,11,29,11.10
2019,09,28,11,30,12.50
2019,09,28,11,31,2.60
2019,09,28,11,32,6.20
2019,09,28,11,33,10.80
2019,09,28,11,34,12.90
2019,09,28,11,35,8.40
2019,09,28,11,36,8.70
2019,09,28,11,37,8.90
2019,09,28,11,38,9.70
2019,09,28,11,39,10.50
2019,09,28,11,40,14.00
2019,09,28,11,41,9.70
2019,09,28,11,42,12.60
2019,09,28,11,43,11.00
2019,09,28,11,44,12.00
2019,09,28,11,45,12.30
2019,09,28,11,46,8.40
2019,09,28,11,47,13.70
2019,09,28,11,48,15.80
2019,09,28,11,49,12.00
2019,09,28,11,50,12.80
2019,09,28,11,51,15.50
2019,09,28,11,52,13.50
2019,09,28,11,53,15.40
2019,09,28,11,54,10.80
2019,09,28,11,55,15.80
2019,09,28,11,56,18.80
2019,09,28,11,57,13.30
2019,09,28,11,58,17.80
2019,09,28,11,59,15.20
2019,09,28,12,00,12.80
2019,09,28,12,01,12.10
2019,09,28,12,02,11.40
2019,09,28,12,03,12.90
2019,09,28,12,04,13.60
2019,09,28,12,05,9.00
2019,09,28,12,06,8.30
2019,09,28,12,07,13.40
2019,09,28,12,08,14.20
2019,09,28,12,09,12.60
2019,09,28,12,10,13.90
2019,09,28,12,11,10.90
2019,09,28,12,12,14.80
2019,09,28,12,13,10.60
2019,09,28,12,14,6.50
2019,09,28,12,15,13.90
2019,09,28,12,16,10.10
2019,09,28,12,17,13.30
2019,09,28,12,18,10.30
2019,09,28,12,19,14.10
2019,09,28,12,20,14.00
2019,09,28,12,21,14.50
2019,09,28,12,22,11.60
2019,09,28,12,23,10.50
2019,09,28,12,24,7.70
2019,09,28,12,25,8.90
2019,09,28,12,26,8.00
2019,09,28,12,27,8.20
2019,09,28,12,28,6.90
2019,09,28,12,29,10.20
2019,09,28,12,30,12.30
2019,09,28,12,31,13.80
2019,09,28,12,32,11.30
2019,09,28,12,33,11.80
2019,09,28,12,34,11.60
2019,09,28,12,35,15.40
2019,09,28,12,36,11.60
2019,09,28,12,37,14.00
2019,09,28,12,38,8.00
2019,09,28,12,39,15.70
2019,09,28,12,40,12.30
2019,09,28,12,41,11.00
2019,09,28,12,42,16.60
2019,09,28,12,43,16.50
2019,09,28,12,44,15.30
2019,09,28,12,45,13.90
2019,09,28,12,46,17.50
2019,09,28,12,47,12.10
2019,09,28,12,48,13.50
2019,09,28,12,49,12.80
2019,09,28,12,50,9.30
2019,09,28,12,51,11.50
2019,09,28,12,52,15.30
2019,09,28,12,53,13.00
2019,09,28,12,54,12.60
2019,09,28,12,55,15.10
2019,09,28,12,56,11.40
2019,09,28,12,57,12.20
2019,09,28,12,58,16.90
2019,09,28,12,59,12.20
2019,09,28,13,00,9.90
2019,09,28,13,01,14.30
2019,09,28,13,02,12.90
2019,09,28,13,03,9.70
2019,09,28,13,04,13.90
2019,09,28,13,05,9.10
2019,09,28,13,06,8.40
2019,09,28,13,07,12.10
2019,09,28,13,08,14.40
2019,09,28,13,09,14.30
2019,09,28,13,10,9.90
2019,09,28,13,11,11.90
2019,09,28,13,12,14.70
2019,09,28,13,13,13.00
2019,09,28,13,14,10.20
2019,09,28,13,15,11.00
2019,09,28,13,16,20.80
2019,09,28,13,17,11.30
2019,09,28,13,18,14.50
2019,09,28,13,19,15.50
2019,09,28,13,20,15.10
2019,09,28,13,21,15.80
2019,09,28,13,22,13.10
2019,09,28,13,23,16.20
2019,09,28,13,24,14.80
2019,09,28,13,25,13.80
2019,09,28,13,26,14.30
2019,09,28,13,27,10.50
2019,09,28,13,28,8.60
2019,09,28,13,29,13.50
2019,09,28,13,30,16.20
2019,09,28,13,31,11.30
2019,09,28,13,32,9.10
2019,09,28,13,33,11.70
2019,09,28,13,34,11.50
2019,09,28,13,35,11.90
2019,09,28,13,36,10.20
2019,09,28,13,37,10.80
2019,09,28,13,38,8.00
2019,09,28,13,39,7.80
2019,09,28,13,40,9.50
2019,09,28,13,41,11.90
2019,09,28,13,42,12.20
2019,09,28,13,43,9.50
2019,09,28,13,44,8.60
2019,09,28,13,45,7.50
2019,09,28,13,46,10.00
2019,09,28,13,47,9.70
2019,09,28,13,48,10.60
2019,09,28,13,49,14.40
2019,09,28,13,50,10.70
2019,09,28,13,51,12.40
2019,09,28,13,52,8.60
2019,09,28,13,53,11.90
2019,09,28,13,54,12.90
2019,09,28,13,55,15.90
2019,09,28,13,56,13.20
2019,09,28,13,57,11.50
2019,09,28,13,58,9.40
2019,09,28,13,59,6.10
2019,09,28,14,00,12.90
2019,09,28,14,01,17.30
2019,09,28,14,02,13.60
2019,09,28,14,03,13.10
2019,09,28,14,04,14.30
2019,09,28,14,05,13.20
2019,09,28,14,06,10.80
2019,09,28,14,07,6.70
2019,09,28,14,08,14.70
2019,09,28,14,09,12.40
2019,09,28,14,10,14.90
2019,09,28,14,11,13.60
2019,09,28,14,12,10.30
2019,09,28,14,13,8.90
2019,09,28,14,14,9.30
2019,09,28,14,15,11.60
2019,09,28,14,16,8.10
2019,09,28,14,17,7.50
2019,09,28,14,18,8.20
2019,09,28,14,19,8.10
2019,09,28,14,20,8.60
2019,09,28,14,21,10.70
2019,09,28,14,22,7.00
2019,09,28,14,23,4.80
2019,09,28,14,24,12.50
2019,09,28,14,25,9.30
2019,09,28,14,26,4.70
2019,09,28,14,27,8.90
2019,09,28,14,28,11.90
2019,09,28,14,29,9.40
2019,09,28,14,30,10.40
2019,09,28,14,31,6.10
2019,09,28,14,32,12.80
2019,09,28,14,33,9.20
2019,09,28,14,34,13.20
2019,09,28,14,35,10.20
2019,09,28,14,36,5.10
2019,09,28,14,37,6.80
2019,09,28,14,38,6.60
2019,09,28,14,39,3.80
2019,09,28,14,40,5.20
2019,09,28,14,41,8.10
2019,09,28,14,42,13.00
2019,09,28,14,43,10.80
2019,09,28,14,44,9.90
2019,09,28,14,45,8.30
2019,09,28,14,46,5.60
2019,09,28,14,47,3.70
2019,09,28,14,48,7.80
2019,09,28,14,49,8.10
2019,09,28,14,50,11.10
2019,09,28,14,51,8.50
2019,09,28,14,52,10.70
2019,09,28,14,53,10.10
2019,09,28,14,54,10.60
2019,09,28,14,55,4.60
2019,09,28,14,56,13.90
2019,09,28,14,57,12.80
2019,09,28,14,58,6.60
2019,09,28,14,59,8.20
2019,09,28,15,00,10.40
2019,09,28,15,01,7.90
2019,09,28,15,02,13.10
2019,09,28,15,03,12.00
2019,09,28,15,04,10.80
2019,09,28,15,05,11.70
2019,09,28,15,06,10.10
2019,09,28,15,07,8.20
2019,09,28,15,08,10.40
2019,09,28,15,09,12.50
2019,09,28,15,10,8.20
2019,09,28,15,11,9.90
2019,09,28,15,12,11.80
2019,09,28,15,13,11.20
2019,09,28,15,14,13.90
2019,09,28,15,15,7.20
2019,09,28,15,16,9.30
2019,09,28,15,17,12.50
2019,09,28,15,18,11.80
2019,09,28,15,19,11.00
2019,09,28,15,20,6.70
2019,09,28,15,21,6.40
2019,09,28,15,22,6.60
2019,09,28,15,23,11.10
2019,09,28,15,24,12.40
2019,09,28,15,25,5.00
2019,09,28,15,26,5.80
2019,09,28,15,27,8.80
2019,09,28,15,28,14.30
2019,09,28,15,29,10.70
2019,09,28,15,30,11.50
2019,09,28,15,31,12.10
2019,09,28,15,32,10.70
2019,09,28,15,33,15.70
2019,09,28,15,34,8.00
2019,09,28,15,35,12.30
2019,09,28,15,36,14.90
2019,09,28,15,37,11.10
2019,09,28,15,38,10.50
2019,09,28,15,39,10.80
2019,09,28,15,40,11.90
2019,09,28,15,41,8.90
2019,09,28,15,42,11.10
2019,09,28,15,43,9.70
2019,09,28,15,44,7.80
2019,09,28,15,45,5.60
2019,09,28,15,46,8.30
2019,09,28,15,47,13.60
2019,09,28,15,48,12.10
2019,09,28,15,49,9.10
2019,09,28,15,50,10.50
2019,09,28,15,51,7.30
2019,09,28,15,52,9.00
2019,09,28,15,53,10.90
2019,09,28,15,54,10.30
2019,09,28,15,55,12.50
2019,09,28,15,56,17.00
2019,09,28,15,57,14.30
2019,09,28,15,58,12.10
2019,09,28,15,59,13.90
2019,09,28,16,00,13.40
2019,09,28,16,01,12.70
2019,09,28,16,02,9.10
2019,09,28,16,03,10.10
2019,09,28,16,04,11.00
2019,09,28,16,05,13.60
2019,09,28,16,06,10.30
2019,09,28,16,07,12.40
2019,09,28,16,08,13.10
2019,09,28,16,09,17.30
2019,09,28,16,10,16.20
2019,09,28,16,11,12.00
2019,09,28,16,12,14.50
2019,09,28,16,13,10.70
2019,09,28,16,14,9.80
2019,09,28,16,15,11.20
2019,09,28,16,16,19.00
2019,09,28,16,17,16.80
2019,09,28,16,18,15.40
2019,09,28,16,19,15.40
2019,09,28,16,20,15.80
2019,09,28,16,21,13.10
2019,09,28,16,22,8.30
2019,09,28,16,23,15.90
2019,09,28,16,24,10.50
2019,09,28,16,25,9.20
2019,09,28,16,26,13.50
2019,09,28,16,27,14.80
2019,09,28,16,28,18.20
2019,09,28,16,29,12.10
2019,09,28,16,30,15.60
2019,09,28,16,31,16.20
2019,09,28,16,32,14.30
2019,09,28,16,33,11.00
2019,09,28,16,34,9.60
2019,09,28,16,35,10.20
2019,09,28,16,36,9.10
2019,09,28,16,37,8.30
2019,09,28,16,38,6.70
2019,09,28,16,39,9.40
2019,09,28,16,40,12.70
2019,09,28,16,41,16.70
2019,09,28,16,42,14.60
2019,09,28,16,43,9.70
2019,09,28,16,44,14.60
2019,09,28,16,45,12.30
2019,09,28,16,46,12.40
2019,09,28,16,47,17.50
2019,09,28,16,48,12.20
2019,09,28,16,49,11.30
2019,09,28,16,50,7.40
2019,09,28,16,51,10.50
2019,09,28,16,52,11.40
2019,09,28,16,53,7.90
2019,09,28,16,54,11.90
2019,09,28,16,55,11.10
2019,09,28,16,56,18.30
2019,09,28,16,57,18.40
2019,09,28,16,58,17.60
2019,09,28,16,59,16.00
2019,09,28,17,00,17.10
2019,09,28,17,01,11.10
2019,09,28,17,02,10.30
2019,09,28,17,03,8.50
2019,09,28,17,04,16.00
2019,09,28,17,05,17.60
2019,09,28,17,06,12.80
2019,09,28,17,07,11.50
2019,09,28,17,08,11.80
2019,09,28,17,09,13.50
2019,09,28,17,10,13.10
2019,09,28,17,11,13.40
2019,09,28,17,12,12.40
2019,09,28,17,13,9.10
2019,09,28,17,14,14.60
2019,09,28,17,15,16.80
2019,09,28,17,16,12.00
2019,09,28,17,17,12.40
2019,09,28,17,18,14.10
2019,09,28,17,19,10.80
2019,09,28,17,20,9.40
2019,09,28,17,21,8.60
2019,09,28,17,22,12.10
2019,09,28,17,23,11.30
2019,09,28,17,24,11.80
2019,09,28,17,25,13.50
2019,09,28,17,26,11.50
2019,09,28,17,27,12.90
2019,09,28,17,28,12.90
2019,09,28,17,29,15.30
2019,09,28,17,30,13.00
2019,09,28,17,31,9.70
2019,09,28,17,32,14.20
2019,09,28,17,33,13.60
2019,09,28,17,34,10.20
2019,09,28,17,35,11.30
2019,09,28,17,36,15.30
2019,09,28,17,37,11.90
2019,09,28,17,38,13.70
2019,09,28,17,39,14.60
2019,09,28,17,40,16.80
2019,09,28,17,41,12.30
2019,09,28,17,42,11.50
2019,09,28,17,43,11.90
2019,09,28,17,44,9.50
2019,09,28,17,45,9.10
2019,09,28,17,46,11.00
2019,09,28,17,47,8.60
2019,09,28,17,48,6.70
2019,09,28,17,49,4.50
2019,09,28,17,50,11.30
2019,09,28,17,51,12.10
2019,09,28,17,52,10.60
2019,09,28,17,53,11.10